Find Starlink 3240

NORAD ID: 49728 Int'l Des: 2021-115 Owner: SPXS Country: US Constellation: starlink operational
LEOCIRCULAR

Live Position

Loading 3D Globe...

About Starlink 3240

Description loading...

Upcoming Passes

Passes for default location (London). Set your location on the main map for personalized predictions.

Altitude History

Loading altitude history...

Two-Line Element Set

1 49728U 21115E 26126.39507338 -.00000690 00000-0 -25234-4 0 9992
2 49728 53.2178 260.0706 0001711 93.8727 266.2461 15.08831386244106
Epoch: May 6, 2026 • Age: 8 hours

Current Status

Altitude 559.3 km
Velocity 7.58 km/s
Sub-Earth Point -52.69°S, 60.76°E
Launch Date Dec 2, 2021
Age 4.4 years
Type internet

Technical Details

Classification Payload
Mass 290.00 kg
Dry Mass 270.00 kg
Total Mass 290.00 kg
Length 0.20 m
Diameter 2.80 m
Span 9.00 m
Shape Box + pan
Manufacturer SPXS
Bus Type Starlink
Phase Status In Orbit
Owner/State SPXS/US

Most Searched